Location: Poughquag
(41.6090°N, 73.6820°W)
Time: 12:47:01
(UTC-04:00)

Tiros 1 - Pass Details

Date: 06 June 2020
Orbit: 630 x 664 km, 48.4° (Epoch: 06 July)

Event Time Altitude Azimuth Distance (km) Brightness Sun altitude
Rises 17:57:12 0° 289° (WNW) 2,947 11.9 25.2°
Reaches altitude 10° 18:00:03 10° 272° (W) 2,027 11.6 24.6°
Maximum altitude 18:03:24 20° 226° (SW) 1,482 9.7 24.0°
Drops below altitude 10° 18:06:42 10° 180° (S) 2,005 9.6 23.4°
Sets 18:09:32 0° 163° (SSE) 2,904 10.2 22.9°
